Lid_Strength_Index
14 12 11 12 11 10 14 14 14 14 14 12 10 10 9 7 7 7 6 6 5 5 4 4 3 3 2 2 3 3 3 2 2 1 1 1 1 1 1 2 1 2 2 1
14 12 11 11 9 10 10 11 13 13 14 9 8 8 8 7 7 7 6 6 5 4 4 4 3 3 2 2 2 2 2 2 2 2 1 1 1 1 1 1 1 2 2 2
16 12 12 13 11 12 12 11 11 14 12 9 9 9 9 8 7 7 6 6 5 5 4 4 3 3 4 3 2 2 2 2 2 2 2 2 1 1 2 2 1 1 2 2
14 13 17 12 9 10 11 11 10 10 10 9 8 8 7 6 7 7 6 5 5 4 4 3 3 3 3 2 3 2 2 2 2 2 2 2 2 2 2 1 1 2 1 2
15 15 13 12 11 11 12 13 9 10 9 8 7 7 7 6 6 6 7 5 4 3 3 3 3 3 2 4 4 4 3 3 3 2 2 2 2 2 2 2 2 2 1 1
14 15 16 12 9 7 8 16 9 8 9 9 8 12 9 6 5 5 5 4 4 3 3 3 3 2 3 4 4 5 4 3 3 2 2 2 2 2 1 1 2 2 2 1
15 15 13 9 7 7 14 13 8 8 8 8 9 8 6 5 5 5 5 5 4 3 4 3 3 3 4 4 4 4 3 2 2 2 2 2 1 1 2 2 2 2 2 2
16 16 16 7 8 11 9 8 7 7 7 7 7 6 5 5 5 5 5 5 5 4 4 3 3 3 4 4 4 3 2 2 2 2 2 1 2 2 2 2 2 3 2 3
14 14 10 8 9 7 6 7 7 7 6 6 6 6 6 6 5 4 5 4 4 4 4 3 3 3 4 4 3 3 2 2 2 3 3 3 2 2 2 2 3 3 3 3
11 10 9 7 6 6 6 6 5 5 6 6 6 6 6 5 6 6 5 4 4 4 4 4 3 3 3 3 3 3 3 4 4 3 4 3 4 4 4 3 4 4 4 4
11 9 8 7 6 6 5 5 5 5 5 5 5 6 6 5 6 5 5 5 4 5 4 4 4 4 3 3 3 3 2 4 4 4 3 4 8 9 6 10 11 7 8 6
12 8 8 8 6 5 6 6 5 5 5 5 5 5 5 6 6 5 5 5 5 5 5 4 5 4 4 4 3 3 3 4 4 3 4 3 4 8 12 13 14 15 15 12
8 6 7 6 6 5 5 5 5 5 5 5 5 5 5 5 5 5 5 5 5 5 4 5 4 4 4 4 4 4 3 5 4 4 4 3 4 3 6 11 14 15 15 15
6 6 7 7 7 6 5 5 4 4 4 4 5 5 5 6 4 4 4 5 4 4 4 4 4 4 4 4 4 5 3 6 4 4 4 4 4 3 3 5 6 6 11 12
6 7 7 7 6 5 4 4 5 5 5 5 4 5 5 5 5 4 4 5 5 5 4 4 4 5 5 5 4 4 4 4 4 4 5 6 5 5 4 4 6 7 7 9
8 7 6 6 6 5 5 5 5 5 5 5 5 5 4 4 4 4 4 3 4 6 4 3 5 5 5 5 5 5 5 5 5 5 6 6 6 6 6 6 7 8 9 10
8 8 8 8 7 6 6 5 4 5 5 5 4 4 4 4 4 4 4 5 5 5 4 3 3 5 5 6 6 6 6 6 6 6 7 7 7 8 7 8 8 9 10 12
6 6 6 6 7 6 6 5 5 5 4 4 4 4 4 4 5 5 4 4 4 4 4 3 3 4 5 6 7 6 6 7 7 7 8 9 9 9 9 9 10 10 10 11
6 7 6 6 6 5 5 4 4 4 4 4 4 4 4 4 4 4 3 4 4 6 4 2 2 4 5 4 6 7 7 8 7 8 8 9 10 11 11 11 11 11 11 12
6 6 6 6 5 5 5 4 4 4 4 4 4 4 4 3 4 4 5 6 5 4 3 2 2 4 5 6 5 8 7 8 8 9 8 10 10 11 11 12 12 11 12 13
6 6 6 6 5 4 4 4 4 5 5 4 4 4 4 3 3 4 6 7 6 4 5 4 3 4 5 5 6 7 7 8 9 10 10 10 10 11 11 12 12 12 12 12
6 7 7 5 5 6 5 5 5 5 5 5 4 4 3 3 3 3 4 5 5 4 4 5 4 3 4 5 6 7 8 8 9 9 10 10 11 11 11 11 12 12 13 13
8 7 5 6 6 6 5 5 6 6 5 4 4 3 3 3 3 4 6 6 6 5 5 6 5 3 4 6 7 7 7 8 9 8 9 10 10 11 12 12 12 12 12 13
7 6 6 6 6 6 7 6 5 5 5 4 3 4 3 4 4 4 5 5 5 5 6 6 5 5 6 7 7 7 8 8 9 9 9 10 10 11 10 11 11 11 11 12
7 7 6 6 7 7 7 6 6 5 4 5 5 4 4 4 4 5 5 6 5 6 6 5 4 5 8 8 8 8 8 9 9 9 9 9 9 9 10 10 11 11 11 12
7 8 6 6 6 7 7 6 6 6 5 5 4 4 4 5 4 4 5 5 6 6 7 6 5 6 6 8 8 8 9 9 9 10 10 9 9 9 9 9 10 10 10 11
6 6 6 7 8 7 7 6 6 6 5 5 4 4 4 3 4 6 6 6 6 6 6 6 7 6 7 6 7 7 8 8 9 8 9 9 9 9 9 9 9 9 9 10